Sioux Falls, SD

8:28 PM CDT on September 23, 2017 (GMT -0500)
Foss

Weather History for KFSD - April, 2014

Change the Weather History Date:

Tuesday, April 29, 2014

  Actual Average Record
Temperature  
Mean Temperature 40 °F 52 °F  
Max Temperature 43 °F 65 °F 90 °F (2007)
Min Temperature 37 °F 40 °F 19 °F (1958)
Degree Days  
Heating Degree Days 25 13  
Month to date heating degree days 546 549  
Since 1 July heating degree days 7994 7394  
Cooling Degree Days 0 0  
Month to date cooling degree days 0 0  
Year to date cooling degree days 0 0  
Moisture  
Dew Point 37 °F    
Average Humidity 85    
Maximum Humidity 93    
Minimum Humidity 76    
Precipitation  
Precipitation 0.28 in 0.11 in 1.16 in (1920)
Month to date precipitation 1.17 2.91  
Year to date precipitation 2.87 5.83  
Snow  
Snow 0.00 in 0.00 in 5.70 in (1950)
Month to date snowfall 3.4 4.5  
Since 1 July snowfall 45.3 44.4  
Snow Depth 0.00 in    
Sea Level Pressure  
Sea Level Pressure 29.76 in    
Wind  
Wind Speed 17 mph (NNE)    
Max Wind Speed 28 mph    
Max Gust Speed 36 mph    
Visibility 10 miles    
Events Rain    
T = Trace of Precipitation, MM = Missing Value Source: NWS Daily Summary

Daily Weather History Graph

Daily Weather History Graph

Search for Another Location

Airport or City:

Trip Planner

Search our weather history database for the weather conditions in past years. The results will help you decide how hot, cold, wet, or windy it might be!

Date:

Astronomy

Apr. 29, 2014 Rise Set
Actual Time 6:22 AM CDT 8:26 PM CDT
Civil Twilight 5:51 AM CDT 8:58 PM CDT
Nautical Twilight 5:12 AM CDT 9:36 PM CDT
Astronomical Twilight 4:30 AM CDT 10:19 PM CDT
Moon 6:41 AM CDT (4/29) 9:08 PM CDT (4/29)
Length of Visible Light 15h 07m
Length of Day
14h 04m
New Moon, 0% of the Moon is Illuminated
Apr 29
New Moon
May 6
First Quarter
May 14
Full
May 21
Last Quarter
May 28
New

Hourly Weather History & Observations

Time (CDT) Temp. Windchill Dew Point Humidity Pressure Visibility Wind Dir Wind Speed Gust Speed Precip Events Conditions
12:20 AM 42.1 °F 33.6 °F 41.0 °F 96% 29.57 in 8.0 mi NE 18.4 mph 24.2 mph 0.01 in   Overcast
12:56 AM 42.1 °F 33.6 °F 39.9 °F 92% 29.60 in 10.0 mi NE 18.4 mph - 0.01 in Rain Light Rain
1:56 AM 42.1 °F 33.1 °F 39.9 °F 92% 29.60 in 10.0 mi NE 20.7 mph - 0.00 in Rain Light Rain
2:56 AM 41.0 °F 32.2 °F 39.0 °F 93% 29.61 in 7.0 mi NNE 18.4 mph 26.5 mph 0.06 in Rain Rain
3:56 AM 41.0 °F 32.5 °F 39.2 °F 93% 29.59 in 10.0 mi NNE 17.3 mph 26.5 mph N/A Rain Light Rain
4:56 AM 39.0 °F 29.6 °F 37.0 °F 93% 29.63 in 10.0 mi NNE 18.4 mph 26.5 mph 0.04 in Rain Light Rain
5:56 AM 37.9 °F 28.5 °F 36.0 °F 93% 29.65 in 10.0 mi North 17.3 mph - 0.05 in Rain Light Rain
6:56 AM 37.0 °F 27.0 °F 35.1 °F 93% 29.67 in 10.0 mi NNE 18.4 mph 31.1 mph 0.02 in Rain Light Rain
7:56 AM 37.0 °F 27.4 °F 35.1 °F 93% 29.68 in 10.0 mi NNE 17.3 mph 25.3 mph 0.00 in   Overcast
8:56 AM 37.0 °F 27.0 °F 34.0 °F 89% 29.70 in 10.0 mi North 18.4 mph 25.3 mph 0.01 in Rain Light Rain
9:56 AM 37.9 °F 28.9 °F 35.1 °F 89% 29.71 in 10.0 mi NNE 16.1 mph 26.5 mph 0.02 in Rain Light Rain
10:37 AM 37.9 °F 26.8 °F 35.1 °F 89% 29.69 in 10.0 mi NNE 24.2 mph 31.1 mph 0.01 in Rain Light Rain
10:56 AM 37.9 °F 28.9 °F 35.1 °F 89% 29.73 in 10.0 mi NNE 16.1 mph 28.8 mph 0.01 in Rain Light Rain
11:41 AM 39.0 °F 29.0 °F 35.1 °F 86% 29.71 in 10.0 mi NNE 20.7 mph 27.6 mph 0.00 in Rain Light Rain
11:56 AM 39.0 °F 29.0 °F 34.0 °F 82% 29.74 in 10.0 mi NNE 20.7 mph 32.2 mph 0.00 in   Overcast
12:56 PM 39.9 °F 29.7 °F 35.1 °F 83% 29.75 in 10.0 mi NNE 23.0 mph 32.2 mph 0.00 in Rain Light Rain
1:56 PM 39.0 °F 28.5 °F 35.1 °F 86% 29.76 in 10.0 mi North 23.0 mph 34.5 mph 0.01 in Rain Light Rain
2:56 PM 39.9 °F 30.5 °F 36.0 °F 86% 29.79 in 10.0 mi North 19.6 mph 26.5 mph 0.00 in Rain Light Rain
3:28 PM 42.1 °F 34.2 °F 37.0 °F 82% 29.76 in 10.0 mi North 16.1 mph 27.6 mph 0.00 in Rain Light Rain
3:36 PM 41.0 °F 31.6 °F 37.0 °F 86% 29.76 in 10.0 mi North 20.7 mph - 0.01 in Rain Light Rain
3:56 PM 41.0 °F 32.5 °F 37.0 °F 86% 29.80 in 10.0 mi North 17.3 mph 26.5 mph 0.01 in Rain Light Rain
4:37 PM 42.1 °F 34.2 °F 37.0 °F 82% 29.78 in 10.0 mi NNE 16.1 mph 26.5 mph 0.02 in Rain Light Rain
4:56 PM 42.1 °F 33.1 °F 36.0 °F 79% 29.82 in 10.0 mi North 20.7 mph 28.8 mph 0.02 in Rain Light Rain
5:28 PM 42.1 °F 33.6 °F 37.0 °F 82% 29.81 in 10.0 mi North 18.4 mph 26.5 mph 0.00 in Rain Light Rain
5:46 PM 42.1 °F 34.2 °F 37.0 °F 82% 29.82 in 10.0 mi NNE 16.1 mph 26.5 mph 0.00 in Rain Light Rain
5:54 PM 42.8 °F 34.8 °F 37.4 °F 81% 29.82 in 10.0 mi NNE 17.3 mph 25.3 mph 0.00 in Rain Light Rain
5:56 PM 42.1 °F 35.7 °F 37.9 °F 85% 29.86 in 10.0 mi NNE 11.5 mph 25.3 mph 0.00 in Rain Light Rain
6:11 PM 43.0 °F 37.7 °F 37.9 °F 82% 29.82 in 10.0 mi NNE 9.2 mph - 0.00 in Rain Light Rain
6:17 PM 43.0 °F 36.0 °F 37.9 °F 82% 29.83 in 10.0 mi North 13.8 mph 23.0 mph 0.00 in Rain Light Rain
6:56 PM 42.1 °F 34.2 °F 37.0 °F 82% 29.88 in 10.0 mi North 16.1 mph 25.3 mph 0.01 in Rain Light Rain
7:16 PM 42.1 °F 32.8 °F 37.0 °F 82% 29.85 in 10.0 mi North 21.9 mph 32.2 mph 0.00 in Rain Light Rain
7:56 PM 42.1 °F 34.5 °F 37.9 °F 85% 29.89 in 10.0 mi North 15.0 mph 23.0 mph 0.00 in Rain Light Rain
8:13 PM 42.1 °F 34.9 °F 37.9 °F 85% 29.86 in 10.0 mi North 13.8 mph - 0.00 in Rain Light Rain
8:46 PM 41.0 °F 33.5 °F 37.0 °F 86% 29.87 in 10.0 mi North 13.8 mph - 0.00 in   Overcast
8:56 PM 41.0 °F 33.1 °F 37.0 °F 86% 29.91 in 10.0 mi North 15.0 mph - 0.00 in   Overcast
9:56 PM 41.0 °F 33.5 °F 37.0 °F 86% 29.92 in 10.0 mi North 13.8 mph - 0.00 in Rain Light Rain
10:56 PM 41.0 °F 34.7 °F 37.0 °F 86% 29.91 in 10.0 mi NNW 10.4 mph - 0.00 in Rain Light Rain
11:56 PM 41.0 °F 35.2 °F 37.0 °F 86% 29.91 in 10.0 mi NNW 9.2 mph - 0.00 in Rain Light Rain